This is the latest recevied weather packets stored in our database for station/object DM1RG-6. If no packets are shown the sender has not sent any weather packets the latest 10 day(s).
| Time | Temp. | Humidity | Pressure | Rain* | Wind** | Luminosity | Snow |
|---|---|---|---|---|---|---|---|
| 1777796643 | 23.89° C | 43% | 1013.1 hPa | 0 mm | - | - | - |
| 1777796283 | 23.89° C | 42% | 1013 hPa | 0 mm | - | - | - |
| 1777795923 | 23.33° C | 43% | 1012.8 hPa | 0 mm | - | - | - |
| 1777795563 | 22.78° C | 45% | 1013.3 hPa | 0 mm | - | - | - |
| 1777795204 | 22.78° C | 44% | 1013 hPa | 0 mm | - | - | - |
| 1777794844 | 22.78° C | 44% | 1013 hPa | 0 mm | - | - | - |
| 1777794483 | 23.33° C | 44% | 1012.9 hPa | 0 mm | - | - | - |
| 1777794123 | 22.22° C | 44% | 1013 hPa | 0 mm | - | - | - |
| 1777793763 | 21.67° C | 45% | 1013.2 hPa | 0 mm | - | - | - |
| 1777793403 | 21.67° C | 45% | 1013.1 hPa | 0 mm | - | - | - |
| 1777793043 | 21.11° C | 45% | 1013 hPa | 0 mm | - | - | - |
| 1777792683 | 20.56° C | 47% | 1013 hPa | 0 mm | - | - | - |
| 1777792323 | 20° C | 47% | 1013 hPa | 0 mm | - | - | - |
| 1777791963 | 20° C | 47% | 1013.1 hPa | 0 mm | - | - | - |
| 1777791603 | 20° C | 48% | 1013.3 hPa | 0 mm | - | - | - |
| 1777791244 | 19.44° C | 48% | 1013.1 hPa | 0 mm | - | - | - |
| 1777790884 | 18.89° C | 50% | 1013.2 hPa | 0 mm | - | - | - |
| 1777790523 | 18.33° C | 50% | 1013.3 hPa | 0 mm | - | - | - |
| 1777790163 | 18.33° C | 51% | 1013.2 hPa | 0 mm | - | - | - |
| 1777789803 | 18.33° C | 50% | 1013.1 hPa | 0 mm | - | - | - |
| 1777789443 | 18.33° C | 52% | 1013.2 hPa | 0 mm | - | - | - |
| 1777789083 | 17.78° C | 51% | 1013.4 hPa | 0 mm | - | - | - |
| 1777788724 | 17.78° C | 51% | 1013.2 hPa | 0 mm | - | - | - |
| 1777788364 | 17.78° C | 51% | 1013.2 hPa | 0 mm | - | - | - |
| 1777788003 | 17.22° C | 54% | 1013.1 hPa | 0 mm | - | - | - |
* Rain latest hour (hover to see other rain measurements)
** Current wind speed in m/s (hover to see current wind gust speed)